Regional Weather Roundup
Issued by NWS

Home | Current Version | Previous Version | Graphics & Text | Print | Product List | Glossary On
Versions: 1 2 3 4 5 6 7 8 9 10 11 12 13 14 15 16 17 18 19 20 21 22 23 24 25 26 27 28 29 30 31 32 33 34 35 36 37 38 39 40 41 42 43 44 45 46 47 48 49 50
000
ASUS43 KLMK 040810
RWRKY
KENTUCKY REGIONAL WEATHER ROUNDUP
NATIONAL WEATHER SERVICE LOUISVILLE KY
300 AM EST WED MAR 04 2015

NOTE "FAIR" INDICATES FEW OR NO CLOUDS BELOW 12,000 FEET
WITH NO SIGNIFICANT WEATHER AND/OR OBSTRUCTIONS TO VISIBILITY.

KYZ001>023-026-027-061>063-070>075-040900-
WESTERN AND SOUTH CENTRAL KENTUCKY

CITY           SKY/WX    TMP DP  RH WIND       PRES   REMARKS
PADUCAH        LGT RAIN  44  43  96 N6        29.94R FOG
HENDERSON      CLOUDY    41  39  93 CALM      29.92R
OWENSBORO      HVY RAIN  43  43 100 N7        29.91F FOG
HOPKINSVILLE   LGT RAIN  50  49  96 N7        29.87F
BOWLING GREEN  LGT RAIN  51  48  89 NW6       29.88R FOG
GLASGOW        LGT RAIN  50  50 100 E5        29.85F
$$

KYZ024-025-028>034-038-045-046-053-040900-
NORTH CENTRAL KENTUCKY

CITY           SKY/WX    TMP DP  RH WIND       PRES   REMARKS
LOUISVILLE/SDF RAIN      44  42  93 NW7       29.91R FOG
LOUISVILLE/LOU LGT RAIN  43  41  93 NW7       29.92R FOG
FORT KNOX      HVY RAIN  43  41  93 N5        29.87R FOG
$$

KYZ035>037-039>044-047>052-055>060-089>105-040900-
NORTHEAST KENTUCKY

CITY           SKY/WX    TMP DP  RH WIND       PRES   REMARKS
LEXINGTON      CLOUDY    43  42  97 N8        29.87F
COVINGTON      LGT RAIN  38  37  97 W6        29.90R FOG     WCI  33
FRANKFORT      LGT RAIN  43  41  93 NW3       29.88S FOG
$$

KYZ054-064>069-076>088-106>120-040900-
SOUTHEAST KENTUCKY

CITY           SKY/WX    TMP DP  RH WIND       PRES   REMARKS
JACKSON        HVY RAIN  51  50  96 NW7       29.86S FOG
LONDON         CLOUDY    62  55  77 S14G25    29.84F
SOMERSET       CLOUDY    52  52 100 N9        29.89R
MIDDLESBORO    CLOUDY    57  55  93 SW6       29.90S
MONTICELLO     CLOUDY    62  59  90 W9        29.89R
$$




USA.gov is the U.S. government's official web portal to all federal, state and local government web resources and services.